This is the latest recevied weather packets stored in our database for station/object KE8CZD. If no packets are shown the sender has not sent any weather packets the latest 10 day(s).
| Time | Temp. | Humidity | Pressure | Rain* | Wind** | Luminosity | Snow |
|---|---|---|---|---|---|---|---|
| 1778365844 | 20° C | 25% | 999.1 hPa | 0 mm | - | - | - |
| 1778365125 | 20.56° C | 25% | 998.7 hPa | 0 mm | - | - | - |
| 1778364764 | 20° C | 24% | 998.6 hPa | 0 mm | - | - | - |
| 1778364406 | 20.56° C | 24% | 998.5 hPa | 0 mm | - | - | - |
| 1778364044 | 20.56° C | 24% | 998.3 hPa | 0 mm | - | - | - |
| 1778363685 | 20.56° C | 26% | 998.1 hPa | 0 mm | - | - | - |
| 1778363325 | 20.56° C | 28% | 998 hPa | 0 mm | - | - | - |
| 1778362965 | 20° C | 30% | 998 hPa | 0 mm | - | - | - |
| 1778362604 | 20° C | 29% | 998 hPa | 0 mm | - | - | - |
| 1778362244 | 20° C | 29% | 998 hPa | 0 mm | - | - | - |
| 1778361884 | 20.56° C | 27% | 997.9 hPa | 0 mm | - | - | - |
| 1778361524 | 20.56° C | 27% | 997.8 hPa | 0 mm | - | - | - |
| 1778361164 | 20.56° C | 27% | 997.9 hPa | 0 mm | - | - | - |
| 1778360804 | 20° C | 26% | 998 hPa | 0 mm | - | - | - |
| 1778360445 | 20° C | 26% | 998.2 hPa | 0 mm | - | - | - |
| 1778360085 | 20° C | 27% | 998.1 hPa | 0 mm | - | - | - |
| 1778359724 | 20° C | 28% | 998.3 hPa | 0 mm | - | - | - |
| 1778359365 | 20° C | 29% | 998.3 hPa | 0 mm | - | - | - |
| 1778359004 | 19.44° C | 31% | 998.5 hPa | 0 mm | - | - | - |
| 1778358644 | 20° C | 32% | 998.5 hPa | 0 mm | - | - | - |
| 1778358285 | 18.89° C | 34% | 0 hPa | 0 mm | - | - | - |
| 1778357924 | 18.33° C | 35% | 998.9 hPa | 0 mm | - | - | - |
| 1778357564 | 18.89° C | 34% | 999.1 hPa | 0 mm | - | - | - |
| 1778357204 | 18.89° C | 34% | 999 hPa | 0 mm | - | - | - |
| 1778356844 | 18.89° C | 33% | 998.9 hPa | 0 mm | - | - | - |
* Rain latest hour (hover to see other rain measurements)
** Current wind speed in m/s (hover to see current wind gust speed)